{"data":{"norad_id":53221,"intl_designator":"2022-084AJ","name":"STARLINK-4377","alt_names":[],"object_type":"PAYLOAD","status":"ACTIVE","operator":null,"country":"US","launch_date":"2022-07-22","launch_site_code":"AFWTR","launch_vehicle":null,"mission":null,"orbit_class":"UNKNOWN","rcs_meters":null,"size_class":null,"mass_kg":null,"dimensions":null,"purposes":["comms"],"wikipedia_slug":null,"has_3d_model":false,"image_url":null,"decayed_at":null,"tle_current":{"epoch":"2026-05-25T02:50:59.246592Z","epoch_age_seconds":60832,"freshness":"FRESH","line1":"1 53221U 22084AJ  26145.11874128 -.00000331  00000+0 -18875-4 0  9990","line2":"2 53221  97.4508 205.1076 0003007 143.1464 216.9970 15.05660043210818","mean_motion":15.05660043,"eccentricity":0.0003007,"inclination_deg":97.4508,"raan_deg":205.1076,"arg_perigee_deg":143.1464,"mean_anomaly_deg":216.997,"bstar":-1.8875e-5,"rev_number":21081,"period_min":95.639118982717,"perigee_km":547.39721376689,"apogee_km":551.56348284016,"semimajor_km":6927.6173483035,"source":"CELESTRAK","updated_at":"2026-05-25T13:38:17.356277Z"}}}